San Jose, Costa Rica

3:23 AM CST on February 18, 2018 (GMT -0600)
Juan Santamaria International

Weather History for MROC - January, 2013

Change the Weather History Date:

Saturday, January 26, 2013

  Actual Average Record
Temperature  
Mean Temperature 75 °F -  
Max Temperature 83 °F 81 °F 87 °F (1998)
Min Temperature 67 °F 64 °F 60 °F (2004)
Cooling Degree Days 10    
Growing Degree Days 25 (Base 50)    
Moisture  
Dew Point 57 °F    
Average Humidity 57    
Maximum Humidity 68    
Minimum Humidity 33    
Precipitation  
Precipitation 0.00 in 0.01 in - ()
Sea Level Pressure  
Sea Level Pressure 29.99 in    
Wind  
Wind Speed 12 mph ()    
Max Wind Speed 18 mph    
Max Gust Speed 30 mph    
Visibility 7.8 miles    
Events      
Averages and records for this station are not official NWS values.
T = Trace of Precipitation, MM = Missing Value Source: Averaged Metar Reports

Daily Weather History Graph

Daily Weather History Graph

Search for Another Location

Airport or City:

Trip Planner

Search our weather history database for the weather conditions in past years. The results will help you decide how hot, cold, wet, or windy it might be!

Date:

Astronomy

Jan. 26, 2013 Rise Set
Actual Time 5:59 AM CST 5:39 PM CST
Civil Twilight 5:37 AM CST 6:01 PM CST
Nautical Twilight 5:11 AM CST 6:27 PM CST
Astronomical Twilight 4:46 AM CST 6:52 PM CST
Moon 5:24 PM CST (1/26) 5:22 AM CST (1/26)
Length of Visible Light 12h 24m
Length of Day
11h 40m
Full, 100% of the Moon is Illuminated
Jan 26
Full
Jan 26
Full
Feb 3
Last Quarter
Feb 10
New
Feb 17
First Quarter

Hourly Weather History & Observations

Time (CST) Temp. Heat Index Dew Point Humidity Pressure Visibility Wind Dir Wind Speed Gust Speed Precip Events Conditions
12:00 AM 71 °F - 56 °F 48% 29.87 in 12 mi East 13.8 mph - -   Scattered Clouds
12:00 AM 69.8 °F - 55.4 °F 60% 30.05 in 6.2 mi East 13.8 mph - N/A   Scattered Clouds
1:00 AM 69.8 °F - 55.4 °F 60% 30.03 in 6.2 mi East 11.5 mph 23.0 mph N/A   Scattered Clouds
2:00 AM 69.8 °F - 55.4 °F 60% 30.02 in 6.2 mi ESE 11.5 mph 23.0 mph N/A   Scattered Clouds
3:00 AM 69 °F - 56 °F 54% 29.85 in 12 mi ESE 15.0 mph - -   Scattered Clouds
3:00 AM 68.0 °F - 55.4 °F 64% 30.00 in 6.2 mi ESE 15.0 mph - N/A   Scattered Clouds
4:00 AM 68.0 °F - 57.2 °F 68% 30.01 in 6.2 mi East 13.8 mph - N/A   Scattered Clouds
5:00 AM 68.0 °F - 57.2 °F 68% 30.01 in 6.2 mi East 16.1 mph 28.8 mph N/A   Partly Cloudy
6:00 AM 68 °F - 57 °F 60% 29.89 in 12 mi ESE 11.5 mph - -   Scattered Clouds
6:00 AM 68.0 °F - 57.2 °F 68% 30.02 in 6.2 mi ESE 11.5 mph 23.0 mph N/A   Scattered Clouds
7:00 AM 69.8 °F - 57.2 °F 64% 30.03 in 6.2 mi ESE 15.0 mph 26.5 mph N/A   Scattered Clouds
8:00 AM 69.8 °F - 59.0 °F 68% 30.05 in 6.2 mi ESE 12.7 mph 25.3 mph N/A   Mostly Cloudy
9:00 AM 72 °F - 59 °F 55% 29.92 in 12 mi East 17.3 mph - -   Scattered Clouds
9:00 AM 71.6 °F - 59.0 °F 64% 30.07 in 6.2 mi East 17.3 mph 28.8 mph N/A   Mostly Cloudy
10:00 AM 77.0 °F - 55.4 °F 47% 30.07 in 6.2 mi East 15.0 mph 26.5 mph N/A   Mostly Cloudy
11:00 AM 78.8 °F - 57.2 °F 47% 30.05 in 6.2 mi East 18.4 mph 29.9 mph N/A   Scattered Clouds
12:00 PM 81 °F - 57 °F 33% 29.85 in 12 mi East 16.1 mph - -   Scattered Clouds
12:00 PM 80.6 °F 80.8 °F 57.2 °F 45% 30.04 in 6.2 mi East 16.1 mph 27.6 mph N/A   Scattered Clouds
1:00 PM 80.6 °F 80.8 °F 57.2 °F 45% 30.02 in 6.2 mi East 15.0 mph 26.5 mph N/A   Scattered Clouds
2:00 PM 80.6 °F 80.8 °F 57.2 °F 45% 29.99 in 6.2 mi East 15.0 mph 26.5 mph N/A   Scattered Clouds
3:00 PM 80 °F - 57 °F 35% 29.81 in 12 mi East 11.5 mph - -   Scattered Clouds
3:00 PM 80.6 °F 80.8 °F 57.2 °F 45% 29.98 in 6.2 mi East 11.5 mph 23.0 mph N/A   Scattered Clouds
4:00 PM 78.8 °F - 59.0 °F 51% 29.98 in 6.2 mi East 11.5 mph 23.0 mph N/A   Scattered Clouds
5:00 PM 77.0 °F - 59.0 °F 54% 29.99 in 6.2 mi East 11.5 mph 23.0 mph N/A   Scattered Clouds
6:00 PM 72 °F - 59 °F 55% 29.87 in 12 mi East 11.5 mph - -   Scattered Clouds
6:00 PM 71.6 °F - 59.0 °F 64% 30.01 in 6.2 mi East 11.5 mph 23.0 mph N/A   Partly Cloudy
7:00 PM 71.6 °F - 59.0 °F 64% 30.02 in 6.2 mi East 11.5 mph 23.0 mph N/A   Partly Cloudy
8:00 PM 69.8 °F - 59.0 °F 68% 30.03 in 6.2 mi ESE 11.5 mph 23.0 mph N/A   Partly Cloudy
9:00 PM 69 °F - 57 °F 57% 29.91 in 12 mi East 11.5 mph - -  
9:00 PM 69.8 °F - 57.2 °F 64% 30.04 in - East 11.5 mph 23.0 mph N/A   Clear
10:00 PM 68.0 °F - 57.2 °F 68% 30.05 in - East 15.0 mph 26.5 mph N/A   Clear
11:00 PM 68.0 °F - 57.2 °F 68% 30.05 in - East 12.7 mph 24.2 mph N/A   Clear